SCP
0 0 0 0 0 0 0 0 0 0 0 0 0 0 0 0 0 0 0 0 0 0 0 0 0 0 0 0 0 0 0 0 0 0 0 0 0 0 0 0 0 0 0 0
0 0 0 0 0 0 0 0 0 0 0 0 0 0 0 0 0 0 0 0 0 0 0 0 0 0 0 0 0 0 0 0 0 0 0 0 0 0 0 0 0 0 0 0
0 0 0 0 0 0 0 0 0 0 0 0 0 0 0 0 0 0 0 0 0 0 0 0 0 0 0 0 0 0 0 0 0 0 0 0 0 0 0 0 0 0 0 0
0 0 0 0 0 0 0 0 0 0 0 0 0 0 0 0 0 0 0 0 0 0 0 0 0 0 0 0 0 0 0 0 0 0 0 0 0 0 0 0 0 0 0 0
0 0 0 0 0 0 0 0 0 0 0 0 0 0 0 0 0 0 0 0 0 0 0 0 0 0 0 0 0 0 0 0 0 0 0 0 0 0 0 0 0 0 0 0
0 0 0 0 0 0 0 0 0 0 0 0 0 0 0 0 0 0 0 0 0 0 0 0 0 0 0 0 0 0 0 0 0 0 0 0 0 0 0 0 0 0 0 0
0 0 0 0 0 0 0 0 0 0 0 0 0 0 0 0 0 0 0 0 0 0 0 0 0 0 0 0 0 0 0 0 0 0 0 0 0 0 0 0 0 0 0 0
0 0 0 0 0 0 0 0 0 0 0 0 0 0 0 0 0 0 0 0 0 0 0 0 0 0 0 0 0 0 0 0 0 0 0 0 0 0 0 0 0 0 0 0
0 0 0 0 0 0 0 0 0 0 0 0 0 0 0 0 0 0 0 0 0 0 0 0 0 0 0 0 0 0 0 0 0 0 0 0 0 0 0 0 0 0 0 0
0 0 0 0 0 0 0 0 0 0 0 0 0 0 0 0 0 0 0 0 0 0 0 0 0 0 0 0 0 0 0 0 0 0 0 0 0 0 0 0 0 0 0 0
0 0 0 0 0 0 0 0 0 0 0 0 0 0 0 0 0 0 0 0 0 0 0 0 0 0 0 0 0 0 0 0 0 0 0 0 0 0 0 0 0 0 0 0
0 0 0 0 0 0 0 0 0 0 0 0 0 0 0 0 0 0 0 0 0 0 0 0 0 0 0 0 0 0 0 0 0 0 0 0 0 0 0 0 0 0 0 0
0 0 0 0 0 0 0 0 0 0 0 0 0 0 0 0 0 0 0 0 0 0 0 0 0 0 0 0 0 0 0 0 0 0 0 0 0 0 0 0 0 0 0 0
0 0 0 0 0 0 0 0 0 0 0 0 0 0 0 0 0 0 0 0 0 0 0 0 0 0 0 0 0 0 0 0 0 0 0 0 0 0 0 0 0 0 0 0
0 0 0 0 0 0 0 0 0 0 0 0 0 0 0 0 0 0 0 0 0 0 0 0 0 0 0 0 0 0 0 0 0 0 0 0 0 0 0 0 0 0 0 0
0 0 0 0 0 0 0 0 0 0 0 0 0 0 0 0 0 0 0 0 0 0 0 0 0 0 0 0 0 0 0 0 0 0 0 0 0 0 0 0 0 0 0 0
0 0 0 0 0 0 0 0 0 0 0 0 0 0 0 0 0 0 0 0 0 0 0 0 0 0 0 0 0 0 0 0 0 0 0 0 0 0 0 0 0 0 0 0
0 0 0 0 0 0 0 0 0 0 0 0 0 0 0 0 0 0 0 0 0 0 0 0 0 0 0 0 0 0 0 0 0 0 0 0 0 0 0 0 0 0 0 0
0 0 0 0 0 0 0 0 0 0 0 0 0 0 0 0 0 0 0 0 0 0 0 0 0 0 0 0 0 0 0 0 0 0 0 0 0 0 0 0 0 0 0 0
0 0 0 0 0 0 0 0 0 0 0 0 0 0 0 0 0 0 0 0 0 0 0 0 0 0 0 0 0 0 0 0 0 0 0 0 0 0 0 0 0 0 0 0
0 0 0 0 0 0 0 0 0 0 0 0 0 0 0 0 0 0 0 0 0 0 0 0 0 0 0 0 0 0 0 0 0 0 0 0 0 0 0 0 0 0 0 0
0 0 0 0 0 0 0 0 0 0 0 0 0 0 0 0 0 0 0 0 0 0 0 0 0 0 0 0 0 0 0 0 0 0 0 0 0 0 0 0 0 0 0 0
0 0 0 0 0 0 0 0 0 0 0 0 0 0 0 0 0 0 0 0 0 0 0 0 0 0 0 0 0 0 0 0 0 0 0 0 0 0 0 0 0 0 0 0
0 0 0 0 0 0 0 0 0 0 0 0 0 0 0 0 0 0 0 0 0 0 0 0 0 0 0 0 0 0 0 0 0 0 0 0 0 0 0 0 0 0 0 0
0 0 0 0 0 0 0 0 0 0 0 0 0 0 0 0 0 0 0 0 0 0 0 0 0 0 0 0 0 0 0 0 0 0 0 0 0 0 0 0 0 0 0 0
0 0 0 0 0 0 0 0 0 0 0 0 0 0 0 0 0 0 0 0 0 0 0 0 0 0 0 0 0 0 0 0 0 0 0 0 0 0 0 0 0 0 0 0
0 0 0 0 0 0 0 0 0 0 0 0 0 0 0 0 0 0 0 0 0 0 0 0 0 0 0 0 0 0 0 0 0 0 0 0 0 0 0 0 0 0 0 0
Wind_Speed
3 2 3 3 4 6 5 6 6 5 5 6 7 7 6 6 6 6 5 4 4 3 2 2 2 1 2 1 2 2 3 2 1 1 1 1 1 2 2 2 2 2 2 3
1 0 2 1 2 4 4 3 3 2 3 3 3 5 5 6 7 6 5 5 4 4 3 3 2 2 2 2 2 2 3 1 1 1 2 1 1 1 2 2 2 2 2 2
1 2 2 2 4 5 4 4 7 7 7 5 5 7 8 8 7 7 6 5 5 4 4 3 3 3 3 2 2 3 2 1 1 1 1 1 1 1 1 2 2 2 2 2
1 2 3 6 2 4 4 2 4 4 5 8 7 5 3 4 7 6 6 5 5 4 3 2 2 2 3 3 3 3 2 1 1 1 1 1 1 1 1 1 1 1 2 3
3 2 4 5 2 4 5 2 3 5 6 6 7 6 2 2 5 6 6 5 5 4 4 3 3 3 4 4 3 3 1 1 1 0 0 1 1 1 1 1 1 2 2 2
4 3 5 6 2 2 4 2 3 6 9 9 8 5 4 4 5 5 5 4 5 4 5 4 3 4 5 3 3 1 0 1 1 0 0 1 1 1 1 1 2 2 2 3
4 3 7 5 2 4 5 7 4 8 10 10 7 6 5 7 5 5 5 5 5 6 5 3 3 4 5 3 1 1 0 1 1 1 0 0 1 1 1 1 2 2 3 3
5 3 8 2 4 7 7 2 6 7 8 7 5 6 7 7 7 7 6 5 5 5 4 2 3 5 4 1 1 0 1 1 1 1 1 1 1 1 1 1 2 3 3 4
8 7 4 2 4 2 2 3 4 6 6 8 8 6 6 6 6 6 6 5 4 5 4 2 2 3 3 1 0 1 1 1 1 1 1 1 0 1 1 1 1 2 2 3
2 4 3 2 1 1 2 3 4 6 8 9 8 8 7 7 6 5 4 4 4 5 4 2 1 1 2 1 1 2 1 1 1 2 2 2 1 1 1 1 2 2 3 4
2 3 1 2 2 2 3 5 7 6 6 8 10 9 7 7 6 5 4 3 4 4 4 2 1 1 0 1 2 2 1 1 1 1 2 2 2 2 2 3 3 3 3 4
6 6 5 4 2 4 6 7 8 9 7 7 8 9 7 6 5 5 4 4 4 3 3 2 2 1 0 0 2 2 1 1 1 1 2 2 2 4 4 5 7 8 7 6
4 2 3 2 2 4 5 6 7 8 9 9 7 7 7 5 4 4 4 4 4 3 2 2 1 1 0 0 1 1 1 1 1 1 2 2 2 3 5 6 7 7 8 9
3 4 3 2 3 4 6 7 7 7 7 7 7 7 7 6 5 5 4 3 3 3 2 2 1 0 1 1 1 1 1 1 1 1 2 2 2 3 3 4 5 5 6 9
2 3 5 5 6 5 6 8 9 7 6 6 6 7 7 6 5 4 3 3 3 3 2 1 1 1 1 1 1 1 1 1 2 2 2 2 3 3 3 4 4 5 5 7
4 5 6 7 7 6 7 8 8 7 6 6 5 5 5 5 4 3 2 3 4 2 2 1 1 2 1 1 1 1 2 4 3 2 2 2 3 3 3 4 5 5 5 6
7 6 6 6 6 6 6 7 8 7 6 6 6 6 6 5 4 3 2 1 2 2 2 2 2 2 1 1 1 1 2 3 5 3 3 3 3 4 4 4 5 5 6 7
7 8 9 10 9 8 6 6 6 7 6 6 6 6 6 5 5 3 2 1 1 0 1 2 2 2 1 2 1 1 2 2 3 3 3 4 4 4 4 5 6 7 6 7
5 6 6 6 7 7 7 6 6 6 6 6 6 5 4 4 4 3 2 2 2 2 3 3 3 2 2 3 3 2 2 3 3 3 4 6 5 4 5 5 6 7 7 7
5 6 6 6 5 6 7 6 6 6 5 6 6 5 3 3 3 3 3 2 3 4 3 3 2 2 3 3 4 2 2 3 4 4 4 4 5 5 5 6 6 7 7 7
5 6 7 6 5 5 6 7 7 6 5 5 6 5 4 3 3 3 3 2 4 3 3 3 2 2 3 4 4 2 3 4 4 5 5 5 5 6 6 7 7 7 7 7
5 6 6 6 6 5 4 5 6 6 5 4 4 4 3 3 3 2 3 4 4 4 2 2 2 4 5 6 3 3 4 4 5 5 5 5 6 6 7 7 7 7 7 7
4 5 5 6 6 5 4 3 4 5 5 5 5 5 4 4 3 3 3 3 3 4 2 3 5 8 9 4 3 3 4 5 5 5 6 6 6 6 7 8 7 7 7 7
4 4 4 4 5 5 4 3 3 3 4 4 4 4 4 3 2 3 3 3 4 4 2 4 8 9 8 2 3 4 4 5 6 6 6 6 6 7 7 7 8 7 8 9
4 4 4 5 5 4 4 3 3 2 2 2 2 2 3 3 3 3 3 3 4 4 3 5 8 9 5 3 4 5 5 6 6 6 6 6 7 7 7 7 8 8 8 8
4 4 3 4 3 3 3 3 3 2 2 2 1 2 2 1 2 2 2 3 4 4 3 3 4 5 4 4 5 6 6 7 7 7 7 7 8 8 8 8 9 8 8 8
3 3 2 2 1 2 3 3 3 3 3 3 3 2 2 2 2 2 2 2 2 3 3 3 3 4 4 5 5 6 6 6 6 6 7 7 7 7 8 9 8 8 7 8
Wind_Direction
232 230 172 188 187 173 176 180 179 209 199 215 195 180 167 154 143 136 139 142 147 148 146 135 122 115 112 101 100 105 100 88 55 9 20 28 19 3 3 9 4 355 1 348
334 8 168 178 209 180 188 173 174 154 239 223 157 131 139 154 151 153 158 160 158 152 145 147 151 146 130 118 120 112 105 94 36 42 35 28 13 17 19 6 356 4 354 343
271 313 77 270 225 187 185 187 167 188 211 156 149 165 174 173 167 168 169 164 160 161 162 164 167 157 151 149 121 107 101 71 45 45 27 353 10 39 15 349 356 351 336 335
126 84 218 245 248 174 163 194 194 181 169 166 167 161 156 162 168 168 163 157 156 153 146 139 129 122 115 105 104 99 79 42 22 32 348 347 23 2 330 331 329 316 317 317
122 166 277 291 220 160 154 239 203 168 153 138 118 86 46 168 164 168 164 155 153 151 140 123 113 115 104 91 87 82 62 359 321 289 312 342 329 304 298 311 312 300 303 312
127 158 225 245 236 176 115 276 227 167 159 151 131 136 223 186 150 141 136 134 132 125 112 109 113 114 103 96 85 77 282 282 300 312 151 286 284 288 289 286 289 302 310 306
152 195 253 252 231 125 152 230 196 170 165 160 169 181 164 144 136 130 124 125 126 121 118 127 131 118 107 100 121 255 291 18 8 345 324 302 322 314 308 313 326 323 314 308
150 184 249 236 141 173 207 195 155 163 163 156 142 120 127 138 136 130 121 119 122 117 111 111 129 123 117 145 239 339 65 44 8 344 333 9 18 348 343 344 341 325 321 318
181 204 241 226 210 224 157 150 164 158 150 141 134 133 131 134 135 131 129 128 124 122 112 96 117 129 135 198 174 99 69 29 348 346 345 348 357 328 335 338 326 311 310 306
206 256 259 259 265 257 173 160 152 145 142 141 137 139 133 133 131 127 126 131 127 120 119 118 118 119 150 168 131 105 87 355 339 345 336 334 325 294 294 296 299 302 298 294
219 258 297 300 249 182 117 113 116 117 126 136 133 133 135 134 133 132 128 131 133 136 142 156 149 128 139 146 122 102 70 359 339 329 316 317 312 286 272 259 253 271 270 269
210 210 183 221 219 150 133 134 136 127 116 123 132 134 128 128 129 129 130 127 123 125 133 149 149 150 230 161 139 129 89 331 317 311 307 307 312 316 301 285 299 295 287 282
204 161 158 158 124 132 135 136 134 132 134 130 124 127 125 121 124 123 122 127 137 145 145 142 137 141 263 157 136 141 186 265 291 295 296 297 300 305 311 316 315 311 307 306
163 126 123 153 152 134 124 120 111 105 111 121 122 121 119 115 119 123 134 147 142 129 124 125 119 239 261 186 147 175 228 274 280 269 276 282 284 284 285 294 308 308 306 305
168 156 155 133 116 114 119 117 113 112 113 111 120 126 127 130 134 138 140 132 118 109 115 121 118 279 276 193 176 230 257 271 270 271 275 277 282 286 286 287 286 291 301 305
123 109 122 128 134 134 130 129 131 137 136 130 130 131 132 131 130 131 132 134 130 144 178 173 206 249 254 204 211 252 264 284 290 277 277 282 283 284 286 286 287 289 291 292
135 141 146 149 154 153 153 151 150 149 145 142 145 136 125 119 114 119 132 148 154 177 197 204 237 258 253 226 220 250 268 291 301 299 279 274 275 276 277 280 282 283 281 283
176 177 172 167 164 158 153 145 144 144 147 148 139 133 135 142 154 169 177 147 108 29 263 245 246 257 260 256 247 247 254 263 268 269 274 276 276 273 274 276 279 281 284 287
163 162 162 161 160 154 152 152 150 145 141 140 141 147 153 158 163 170 161 146 163 238 262 256 264 256 255 264 270 244 253 267 275 274 273 282 286 280 278 278 279 280 282 284
149 150 149 149 150 151 152 150 143 140 144 142 139 138 144 166 170 169 167 191 220 227 238 252 253 247 255 264 277 247 253 260 266 272 274 273 275 278 278 278 278 279 281 280
147 145 144 146 146 145 147 147 146 149 151 149 151 162 173 186 183 172 170 227 256 245 240 259 252 249 255 267 278 253 254 260 264 267 271 273 275 277 277 278 278 279 280 281
147 145 145 143 139 139 142 143 146 148 148 149 153 158 163 182 194 199 214 221 238 245 239 237 243 262 275 283 259 254 259 263 266 268 269 270 272 274 276 277 277 278 278 278
142 141 142 147 149 145 133 138 149 152 159 168 174 180 186 198 195 191 238 244 232 252 249 237 261 278 288 286 260 260 265 268 269 269 270 271 270 271 274 276 275 276 277 278
137 138 141 138 130 130 142 161 156 160 169 179 187 187 183 187 225 229 221 242 251 261 248 260 276 287 296 283 269 269 270 270 270 271 273 273 273 272 272 274 276 276 275 276
140 138 136 139 147 160 165 157 143 150 156 170 198 206 201 192 201 222 225 235 252 265 259 274 288 297 297 274 270 269 270 269 273 276 270 274 276 276 275 274 274 275 276 275
149 155 164 170 170 168 164 159 163 174 170 183 224 226 219 215 213 215 227 238 245 265 266 267 276 285 275 270 269 270 270 279 286 285 279 279 278 278 278 278 276 275 276 276
134 137 134 124 138 159 161 166 174 189 190 190 211 225 220 217 219 225 230 240 253 259 263 266 267 267 270 272 274 274 274 275 275 276 278 279 279 280 280 280 279 277 276 277